Location: Caltech
(34.1382°N, 118.1253°W)
Time: 13:24:17
(UTC-07:00)

Cosmos 1939 Rocket - Visible Passes

Search period start: 26 May 2016 00:00
Search period end: 05 June 2016 00:00
Orbit: 535 x 587 km, 97.6° (Epoch: 26 May)

Date Brightness Start Highest point End Pass type
(mag) Time Alt. Az. Time Alt. Az. Time Alt. Az.
26 May 3.7 20:53:33 15° SE 20:56:27 36° ENE 21:00:17 10° N visible
26 May 5.5 22:29:28 11° WSW 22:31:30 14° W 22:33:44 10° WNW visible
27 May 3.7 20:52:34 15° SE 20:55:33 35° ENE 20:59:22 10° N visible
27 May 5.5 22:28:31 11° SW 22:30:34 14° W 22:32:53 10° WNW visible
28 May 3.8 20:51:36 14° SE 20:54:39 34° ENE 20:58:26 10° N visible
28 May 5.5 22:27:33 11° SW 22:29:39 15° W 22:32:03 10° WNW visible
29 May 3.8 20:50:39 14° SE 20:53:45 34° ENE 20:57:30 10° N visible
29 May 5.5 22:26:35 11° SW 22:28:44 15° W 22:31:11 10° WNW visible
30 May 3.8 20:49:40 13° SE 20:52:50 33° ENE 20:56:34 10° N visible
30 May 5.5 22:25:36 11° SW 22:27:49 16° W 22:30:19 10° WNW visible
31 May 3.9 20:48:42 13° SE 20:51:55 32° ENE 20:55:37 10° N visible
31 May 5.4 22:24:38 11° SW 22:26:53 16° W 22:29:27 10° NW visible
01 Jun 3.9 20:47:44 12° SE 20:51:01 31° ENE 20:54:40 10° N visible
01 Jun 5.4 22:23:40 11° SW 22:25:57 16° W 22:28:35 10° NW visible
02 Jun 3.9 20:46:46 12° SE 20:50:05 30° ENE 20:53:43 10° N visible
02 Jun 5.4 22:22:42 11° SW 22:25:02 17° W 22:27:43 10° NW visible
03 Jun 4.0 20:45:47 11° SE 20:49:10 30° ENE 20:52:45 10° NNE visible
03 Jun 5.4 22:21:43 11° SW 22:24:05 17° W 22:26:50 10° NW visible
04 Jun 4.0 20:44:49 11° SE 20:48:15 29° ENE 20:51:48 10° NNE visible
04 Jun 5.3 22:20:45 11° SW 22:23:10 17° W 22:25:57 10° NW visible
